Regional Weather Roundup
Issued by NWS Goodland, KS

Home | Current Version | Previous Version | Graphics & Text | Print | Product List | Glossary On
Versions: 1 2 3 4 5 6 7 8 9 10 11 12 13 14 15 16 17 18 19 20 21 22 23 24 25 26 27 28 29 30 31 32 33 34 35 36 37 38 39 40 41 42 43 44 45 46 47 48 49 50
000
ASUS43 KGLD 011408
RWRGLD

GOODLAND FORECAST AREA HOURLY WEATHER ROUNDUP
NATIONAL WEATHER SERVICE GOODLAND KS
800 AM MDT WED OCT 01 2014

...OFFICIAL OBSERVATIONS...

CITY           SKY/WX    TMP DP  RH WIND       PRES   REMARKS
GOODLAND KS    SUNNY     52  46  80 NW5       29.87R
HILL CITY KS   CLOUDY    60  59  96 N8        29.80R
IMPERIAL NEB   SUNNY     52  44  74 NW10      29.83S
MCCOOK NEB     MOSUNNY   53  52  96 W3        29.82R FOG
AKRON CO       PTSUNNY   50  41  71 NW8       29.89R
BURLINGTON CO  SUNNY     51  43  74 NW5       29.88R
LIMON CO       MOSUNNY   46  40  79 W7        29.93R
$$

...UNOFFICIAL OBSERVATIONS...

CITY           SKY/WX    TMP DP  RH WIND       PRES   REMARKS
COLBY KS       SUNNY     57  50  77 NW10      29.84S
GOVE KS          N/A     55  32  41 MISG        N/A
NORTON KS      CLOUDY    59  57  94 N3        29.78S FOG
SHARON SPRINGS   N/A     53  47  82 N8          N/A
TRENTON NEB      N/A     56  32  40 NW12        N/A
KIT CARSON CO    N/A     53  42  66 MISG        N/A
YUMA CO          N/A     47  42  84 CALM        N/A
$$



USA.gov is the U.S. government's official web portal to all federal, state and local government web resources and services.